�������l�o���
Date,Time,MP-1(��Sv/h),MP-2(��Sv/h),MP-3(��Sv/h),MP-4(��Sv/h),MP-5(��Sv/h),MP-6(��Sv/h),MP-7(��Sv/h),MP-8(��Sv/h),����,����(m/s),���J
2023/06/03,00:00,0.522,0.766,0.475,0.937,0.671,0.320,0.556,0.528,��,4.1,�L
2023/06/03,00:10,0.521,0.766,0.474,0.936,0.670,0.319,0.555,0.527,���쐼,2.0,�L
2023/06/03,00:20,0.522,0.765,0.474,0.936,0.671,0.319,0.556,0.528,���쐼,2.6,�L
2023/06/03,00:30,0.524,0.768,0.474,0.936,0.670,0.318,0.556,0.528,���쐼,3.6,�L
2023/06/03,00:40,0.522,0.766,0.476,0.936,0.670,0.319,0.556,0.525,��,3.8,�L
2023/06/03,00:50,0.523,0.765,0.475,0.937,0.671,0.318,0.556,0.527,���k��,3.6,�L
2023/06/03,01:00,0.520,0.765,0.476,0.936,0.671,0.319,0.558,0.528,���k��,3.2,�L
2023/06/03,01:10,0.522,0.766,0.476,0.939,0.669,0.320,0.556,0.527,���k��,1.9,�L
2023/06/03,01:20,0.521,0.765,0.476,0.937,0.671,0.318,0.556,0.525,�쐼,1.7,�L
2023/06/03,01:30,0.521,0.768,0.476,0.937,0.672,0.318,0.556,0.526,�쐼,1.9,�L
2023/06/03,01:40,0.522,0.768,0.475,0.936,0.671,0.318,0.556,0.526,���쐼,1.4,�L
2023/06/03,01:50,0.523,0.768,0.475,0.935,0.671,0.318,0.555,0.526,��,2.6,�L
2023/06/03,02:00,0.521,0.768,0.476,0.937,0.672,0.317,0.556,0.526,��,3.8,�L
2023/06/03,02:10,0.521,0.767,0.475,0.936,0.672,0.318,0.557,0.525,��,3.0,�L
2023/06/03,02:20,0.521,0.767,0.477,0.936,0.672,0.319,0.556,0.525,-,CALM,�L
2023/06/03,02:30,0.522,0.769,0.478,0.937,0.671,0.318,0.556,0.526,��,1.5,��
2023/06/03,02:40,0.521,0.769,0.475,0.937,0.670,0.319,0.554,0.528,��쐼,2.9,��
2023/06/03,02:50,0.522,0.768,0.476,0.936,0.672,0.317,0.556,0.526,��,3.7,�L
2023/06/03,03:00,0.522,0.768,0.477,0.936,0.674,0.318,0.558,0.528,��쐼,3.6,�L
2023/06/03,03:10,0.521,0.769,0.475,0.937,0.672,0.317,0.557,0.528,��쐼,2.9,�L
2023/06/03,03:20,0.521,0.767,0.477,0.938,0.673,0.316,0.554,0.527,��,3.3,�L
2023/06/03,03:30,0.521,0.768,0.477,0.934,0.673,0.318,0.556,0.528,���k��,3.8,�L
2023/06/03,03:40,0.524,0.768,0.476,0.939,0.673,0.318,0.556,0.527,�k��,4.3,�L
2023/06/03,03:50,0.520,0.768,0.478,0.936,0.674,0.319,0.556,0.527,�k��,5.1,�L
2023/06/03,04:00,0.523,0.770,0.476,0.935,0.673,0.318,0.556,0.526,���k��,4.6,�L
2023/06/03,04:10,0.522,0.767,0.476,0.938,0.673,0.317,0.556,0.525,���k��,3.9,�L
2023/06/03,04:20,0.521,0.769,0.477,0.936,0.675,0.318,0.556,0.526,���k��,4.8,�L
2023/06/03,04:30,0.521,0.771,0.475,0.936,0.674,0.318,0.557,0.528,���k��,6.2,�L
2023/06/03,04:40,0.524,0.772,0.478,0.939,0.674,0.319,0.555,0.526,��,5.8,�L
2023/06/03,04:50,0.523,0.769,0.475,0.940,0.674,0.316,0.557,0.528,��,5.7,�L
2023/06/03,05:00,0.523,0.769,0.477,0.938,0.672,0.318,0.557,0.528,��,5.1,��
2023/06/03,05:10,0.524,0.771,0.476,0.940,0.675,0.317,0.557,0.528,��,5.2,�L
2023/06/03,05:20,0.523,0.770,0.476,0.939,0.674,0.318,0.558,0.526,���쐼,6.0,�L
2023/06/03,05:30,0.523,0.769,0.475,0.938,0.675,0.318,0.559,0.526,��,6.1,�L
2023/06/03,05:40,0.523,0.770,0.476,0.942,0.675,0.317,0.559,0.527,���k��,6.6,�L
2023/06/03,05:50,0.524,0.770,0.477,0.940,0.675,0.318,0.558,0.526,�k��,5.9,�L
2023/06/03,06:00,0.524,0.775,0.476,0.941,0.675,0.319,0.559,0.526,�k��,6.4,�L
2023/06/03,06:10,0.523,0.770,0.476,0.941,0.676,0.318,0.559,0.527,���k��,6.1,�L
2023/06/03,06:20,0.524,0.772,0.477,0.943,0.674,0.318,0.558,0.527,���k��,7.2,�L
2023/06/03,06:30,0.524,0.772,0.476,0.943,0.675,0.319,0.559,0.527,���k��,8.3,�L
2023/06/03,06:40,0.523,0.771,0.477,0.941,0.674,0.318,0.559,0.526,���k��,5.1,�L
2023/06/03,06:50,0.523,0.771,0.478,0.943,0.676,0.319,0.558,0.525,�k��,3.7,�L
2023/06/03,07:00,0.523,0.771,0.476,0.942,0.675,0.319,0.558,0.526,���k��,3.1,�L
2023/06/03,07:10,0.524,0.771,0.475,0.942,0.675,0.318,0.558,0.527,���k��,4.0,�L
2023/06/03,07:20,0.524,0.770,0.476,0.944,0.675,0.318,0.558,0.527,��,4.5,�L
2023/06/03,07:30,0.523,0.774,0.475,0.943,0.675,0.318,0.559,0.528,��,3.0,�L
2023/06/03,07:40,0.524,0.770,0.477,0.941,0.675,0.318,0.558,0.526,�k��,2.5,�L
2023/06/03,07:50,0.522,0.770,0.476,0.943,0.673,0.318,0.559,0.529,�k�k��,2.3,�L
2023/06/03,08:00,0.524,0.771,0.476,0.944,0.675,0.318,0.559,0.526,���k��,3.7,��
2023/06/03,08:10,0.523,0.771,0.476,0.944,0.675,0.317,0.559,0.527,��,6.3,��
2023/06/03,08:20,0.524,0.770,0.478,0.943,0.674,0.319,0.559,0.528,���k��,4.9,��
2023/06/03,08:30,0.523,0.772,0.478,0.942,0.674,0.318,0.558,0.528,���k��,3.2,��
2023/06/03,08:40,0.524,0.770,0.478,0.941,0.675,0.317,0.559,0.528,���k��,4.3,��
2023/06/03,08:50,0.525,0.771,0.477,0.943,0.674,0.320,0.559,0.528,���k��,5.4,��
2023/06/03,09:00,0.526,0.773,0.476,0.941,0.676,0.319,0.560,0.529,���k��,3.9,��
2023/06/03,09:10,0.524,0.773,0.477,0.944,0.675,0.317,0.558,0.529,�k��,4.5,��
2023/06/03,09:20,0.525,0.774,0.477,0.944,0.675,0.318,0.560,0.529,���k��,3.1,�L
2023/06/03,09:30,0.525,0.773,0.476,0.944,0.678,0.319,0.559,0.528,��,1.7,�L
2023/06/03,09:40,0.526,0.774,0.478,0.943,0.676,0.319,0.561,0.529,�k��,1.7,��
2023/06/03,09:50,0.525,0.771,0.478,0.944,0.676,0.318,0.560,0.528,��,3.1,��
2023/06/03,10:00,0.527,0.771,0.478,0.943,0.677,0.318,0.560,0.528,���k��,3.1,��
2023/06/03,10:10,0.525,0.771,0.477,0.943,0.677,0.318,0.560,0.529,���k��,6.2,��
2023/06/03,10:20,0.524,0.771,0.478,0.945,0.677,0.318,0.558,0.526,���k��,6.8,��
2023/06/03,10:30,0.524,0.771,0.476,0.943,0.677,0.319,0.559,0.529,�k��,6.9,��
2023/06/03,10:40,0.524,0.772,0.476,0.946,0.676,0.318,0.561,0.526,�k��,7.5,��
2023/06/03,10:50,0.527,0.771,0.476,0.945,0.678,0.319,0.561,0.526,�k��,3.8,��
2023/06/03,11:00,0.525,0.772,0.476,0.945,0.676,0.319,0.561,0.526,���k��,5.4,��
2023/06/03,11:10,0.526,0.772,0.478,0.943,0.679,0.319,0.562,0.528,�k��,3.9,��
2023/06/03,11:20,0.525,0.773,0.479,0.945,0.676,0.319,0.561,0.529,�k��,4.9,��
2023/06/03,11:30,0.526,0.773,0.477,0.943,0.679,0.318,0.561,0.529,�k��,3.6,��
2023/06/03,11:40,0.526,0.773,0.478,0.943,0.679,0.318,0.561,0.529,�k�k��,3.1,��
2023/06/03,11:50,0.527,0.775,0.479,0.944,0.679,0.318,0.561,0.529,�k��,2.8,��
2023/06/03,12:00,0.527,0.775,0.479,0.944,0.680,0.320,0.564,0.529,�k��,2.2,��
2023/06/03,12:10,0.528,0.775,0.478,0.943,0.678,0.320,0.564,0.529,�k�k��,1.5,��
2023/06/03,12:20,0.527,0.776,0.478,0.945,0.681,0.319,0.563,0.529,�k,2.0,��
2023/06/03,12:30,0.527,0.778,0.480,0.944,0.680,0.320,0.562,0.529,�k,1.7,��
2023/06/03,12:40,0.528,0.775,0.479,0.946,0.680,0.320,0.563,0.530,�k,3.4,��
2023/06/03,12:50,0.527,0.776,0.479,0.944,0.681,0.319,0.562,0.529,�k��,3.1,��
2023/06/03,13:00,0.527,0.777,0.478,0.946,0.682,0.320,0.561,0.528,�k�k��,2.6,��
2023/06/03,13:10,0.528,0.777,0.479,0.945,0.681,0.319,0.562,0.530,�k,2.6,��
2023/06/03,13:20,0.527,0.777,0.480,0.946,0.682,0.318,0.563,0.529,�k�k��,2.8,��
2023/06/03,13:30,0.528,0.778,0.479,0.947,0.680,0.319,0.562,0.530,�k�k��,0.9,��
2023/06/03,13:40,0.529,0.778,0.481,0.947,0.681,0.320,0.562,0.530,���k��,2.9,��
2023/06/03,13:50,0.529,0.776,0.479,0.948,0.680,0.319,0.562,0.530,���k��,3.8,��
2023/06/03,14:00,0.530,0.779,0.480,0.947,0.680,0.319,0.563,0.530,���k��,5.0,��
2023/06/03,14:10,0.528,0.778,0.480,0.949,0.681,0.320,0.562,0.530,�k��,4.6,��
2023/06/03,14:20,0.529,0.779,0.480,0.950,0.682,0.320,0.564,0.530,���k��,4.8,��
2023/06/03,14:30,0.530,0.782,0.482,0.948,0.683,0.320,0.564,0.530,�k��,6.5,��
2023/06/03,14:40,0.530,0.778,0.482,0.948,0.683,0.321,0.562,0.530,�k��,8.0,��
2023/06/03,14:50,0.530,0.778,0.482,0.949,0.684,0.319,0.564,0.531,�k��,6.8,��
2023/06/03,15:00,0.530,0.780,0.481,0.949,0.684,0.320,0.562,0.531,�k�k��,10.2,��
2023/06/03,15:10,0.530,0.781,0.482,0.948,0.684,0.319,0.564,0.531,�k��,11.1,��
2023/06/03,15:20,0.531,0.782,0.482,0.950,0.684,0.320,0.563,0.531,�k��,13.3,��
2023/06/03,15:30,0.532,0.782,0.482,0.949,0.686,0.319,0.564,0.532,�k��,10.6,��
2023/06/03,15:40,0.532,0.781,0.483,0.950,0.686,0.319,0.565,0.531,�k��,7.1,��
2023/06/03,15:50,0.530,0.781,0.484,0.952,0.685,0.320,0.564,0.531,�k��,13.3,��
2023/06/03,16:00,0.533,0.782,0.483,0.950,0.686,0.322,0.565,0.532,�k��,13.3,��
2023/06/03,16:10,0.532,0.782,0.484,0.951,0.684,0.321,0.563,0.532,�k��,9.0,��
2023/06/03,16:20,0.532,0.784,0.483,0.953,0.686,0.320,0.565,0.531,�k��,9.4,��
2023/06/03,16:30,0.533,0.782,0.481,0.953,0.687,0.320,0.564,0.531,�k��,9.5,��
2023/06/03,16:40,0.532,0.784,0.484,0.953,0.686,0.320,0.565,0.531,�k��,11.6,��
2023/06/03,16:50,0.532,0.782,0.482,0.953,0.687,0.320,0.564,0.532,�k��,12.0,��
2023/06/03,17:00,0.534,0.784,0.484,0.954,0.689,0.320,0.563,0.531,�k��,10.2,��
2023/06/03,17:10,0.530,0.783,0.483,0.956,0.689,0.321,0.564,0.533,���k��,8.4,��
2023/06/03,17:20,0.531,0.785,0.482,0.955,0.688,0.321,0.564,0.533,���k��,8.8,��
2023/06/03,17:30,0.533,0.785,0.484,0.955,0.687,0.321,0.565,0.533,���k��,9.9,��
2023/06/03,17:40,0.532,0.786,0.483,0.956,0.688,0.320,0.564,0.532,�k��,11.6,��
2023/06/03,17:50,0.531,0.785,0.484,0.956,0.687,0.321,0.562,0.531,�k��,11.6,��
2023/06/03,18:00,0.531,0.787,0.484,0.956,0.689,0.320,0.564,0.532,���k��,11.6,��
2023/06/03,18:10,0.532,0.787,0.483,0.957,0.687,0.319,0.563,0.532,�k��,11.6,��
2023/06/03,18:20,0.531,0.787,0.483,0.956,0.689,0.319,0.564,0.534,���k��,10.6,��
2023/06/03,18:30,0.532,0.787,0.483,0.959,0.687,0.320,0.565,0.533,���k��,11.9,��
2023/06/03,18:40,0.532,0.790,0.484,0.957,0.689,0.320,0.564,0.534,�k��,11.6,��
2023/06/03,18:50,0.533,0.790,0.484,0.957,0.688,0.320,0.564,0.535,�k��,11.3,��
2023/06/03,19:00,0.531,0.790,0.484,0.960,0.687,0.320,0.563,0.537,�k��,13.0,��
2023/06/03,19:10,0.532,0.790,0.484,0.960,0.689,0.322,0.566,0.536,���k��,11.6,��
2023/06/03,19:20,0.533,0.790,0.484,0.962,0.690,0.320,0.565,0.536,�k��,11.3,��
2023/06/03,19:30,0.535,0.789,0.484,0.962,0.691,0.321,0.564,0.536,�k��,11.1,��
2023/06/03,19:40,0.532,0.789,0.482,0.961,0.689,0.320,0.566,0.537,�k��,11.3,��
2023/06/03,19:50,0.534,0.791,0.483,0.963,0.691,0.320,0.565,0.535,�k��,10.5,��
2023/06/03,20:00,0.534,0.790,0.484,0.961,0.690,0.321,0.562,0.536,�k��,11.4,��
2023/06/03,20:10,0.535,0.788,0.485,0.962,0.689,0.321,0.563,0.536,�k��,13.9,��
2023/06/03,20:20,0.534,0.790,0.485,0.962,0.690,0.321,0.562,0.537,�k��,13.3,��
2023/06/03,20:30,0.534,0.787,0.487,0.962,0.692,0.321,0.563,0.537,�k��,10.3,��
2023/06/03,20:40,0.533,0.788,0.487,0.964,0.690,0.322,0.564,0.538,�k��,10.7,��
2023/06/03,20:50,0.533,0.790,0.486,0.962,0.690,0.320,0.564,0.537,�k��,7.5,��
2023/06/03,21:00,0.535,0.788,0.487,0.963,0.691,0.320,0.562,0.537,���k��,5.7,��
2023/06/03,21:10,0.532,0.789,0.484,0.963,0.693,0.320,0.563,0.536,���k��,5.5,��
2023/06/03,21:20,0.534,0.788,0.486,0.962,0.694,0.320,0.563,0.536,�k��,5.0,��
2023/06/03,21:30,0.534,0.787,0.486,0.961,0.691,0.322,0.565,0.536,���k��,5.4,��
2023/06/03,21:40,0.535,0.790,0.485,0.962,0.693,0.322,0.564,0.535,���k��,4.4,��
2023/06/03,21:50,0.533,0.788,0.485,0.962,0.691,0.321,0.565,0.536,��,4.1,��
2023/06/03,22:00,0.534,0.788,0.486,0.963,0.693,0.320,0.564,0.536,���쐼,3.0,��
2023/06/03,22:10,0.535,0.788,0.485,0.962,0.693,0.324,0.565,0.536,��,4.5,��
2023/06/03,22:20,0.534,0.788,0.486,0.963,0.693,0.322,0.565,0.535,��,4.8,��
2023/06/03,22:30,0.533,0.788,0.484,0.962,0.693,0.321,0.564,0.536,��,5.2,��
2023/06/03,22:40,0.535,0.789,0.484,0.962,0.693,0.321,0.567,0.536,���쐼,5.6,��
2023/06/03,22:50,0.533,0.790,0.485,0.964,0.690,0.322,0.566,0.535,��,6.1,��
2023/06/03,23:00,0.534,0.789,0.485,0.963,0.691,0.321,0.565,0.536,��,5.2,��
2023/06/03,23:10,0.535,0.791,0.484,0.965,0.691,0.321,0.566,0.536,��,5.3,��
2023/06/03,23:20,0.535,0.789,0.485,0.963,0.692,0.322,0.567,0.536,��,5.0,��
2023/06/03,23:30,0.533,0.788,0.486,0.964,0.693,0.322,0.566,0.535,��,4.2,��
2023/06/03,23:40,0.534,0.789,0.485,0.964,0.693,0.321,0.566,0.535,��,4.6,��
2023/06/03,23:50,0.534,0.790,0.485,0.964,0.692,0.321,0.566,0.534,��,5.0,��
